| time (UTC) | temp F | wind direction | speed knots | gust knots | rain 1hr in | rain 24hr in | rain mn in | humidity % | barometer mb |
| 20260505181531 | 81 | 155 | 2.6 | 8.7 | 0.00 | 0.00 | 0.00 | 83 | 1011.4 |
| 20260505181301 | 81 | 205 | 2.6 | 8.7 | 0.00 | 0.00 | 0.00 | 84 | 1011.3 |
| 20260505180529 | 81 | 157 | 3.5 | 9.6 | 0.00 | 0.00 | 0.00 | 83 | 1011.2 |
| 20260505180029 | 81 | 207 | 4.3 | 10.4 | 0.00 | 0.00 | 0.00 | 84 | 1011.3 |
| 20260505175527 | 81 | 187 | 4.3 | 10.4 | 0.00 | 0.00 | 0.00 | 85 | 1011.2 |
| 20260505175028 | 80 | 187 | 5.2 | 10.4 | 0.00 | 0.00 | 0.00 | 84 | 1011.3 |
| 20260505174759 | 80 | 171 | 4.3 | 10.4 | 0.00 | 0.00 | 0.00 | 84 | 1011.5 |
| 20260505174258 | 80 | 168 | 3.5 | 11.3 | 0.00 | 0.00 | 0.00 | 84 | 1011.5 |
| 20260505173527 | 80 | 198 | 1.7 | 11.3 | 0.00 | 0.00 | 0.00 | 85 | 1011.7 |
| 20260505173024 | 80 | 238 | 1.7 | 7.8 | 0.00 | 0.00 | 0.00 | 86 | 1011.6 |
| 20260505172524 | 79 | 180 | 1.7 | 9.6 | 0.00 | 0.00 | 0.00 | 88 | 1011.8 |
| 20260505172252 | 78 | 158 | 1.7 | 9.6 | 0.00 | 0.00 | 0.00 | 87 | 1012.0 |
| 20260505171521 | 78 | 230 | 1.7 | 7.0 | 0.00 | 0.00 | 0.00 | 87 | 1012.0 |
| 20260505171248 | 78 | 180 | 1.7 | 8.7 | 0.00 | 0.00 | 0.00 | 88 | 1012.0 |
| 20260505170517 | 78 | 210 | 0.9 | 8.7 | 0.00 | 0.00 | 0.00 | 87 | 1012.1 |
| 20260505170246 | 78 | 198 | 1.7 | 7.0 | 0.00 | 0.00 | 0.00 | 88 | 1012.1 |
| 20260505165516 | 78 | 200 | 2.6 | 7.8 | 0.00 | 0.00 | 0.00 | 88 | 1012.1 |
| 20260505165017 | 77 | 162 | 2.6 | 7.8 | 0.00 | 0.00 | 0.00 | 89 | 1012.1 |
| 20260505164516 | 77 | 170 | 1.7 | 7.8 | 0.00 | 0.00 | 0.00 | 89 | 1012.1 |
| 20260505164013 | 77 | 211 | 0.9 | 8.7 | 0.00 | 0.00 | 0.00 | 90 | 1012.0 |
| 20260505163514 | 76 | 195 | 0.0 | 8.7 | 0.00 | 0.00 | 0.00 | 89 | 1011.9 |
| 20260505163013 | 76 | 233 | 0.9 | 6.1 | 0.00 | 0.00 | 0.00 | 89 | 1012.1 |
| 20260505162512 | 76 | 173 | 0.9 | 6.1 | 0.00 | 0.00 | 0.00 | 89 | 1012.0 |
| 20260505162011 | 76 | 188 | 0.0 | 4.3 | 0.00 | 0.00 | 0.00 | 89 | 1012.1 |
| 20260505161744 | 76 | 200 | 0.0 | 7.8 | 0.00 | 0.00 | 0.00 | 89 | 1012.1 |
| 20260505161243 | 76 | 183 | 0.0 | 7.8 | 0.00 | 0.00 | 0.00 | 90 | 1012.1 |
| 20260505160743 | 76 | 209 | 0.0 | 3.5 | 0.00 | 0.00 | 0.00 | 90 | 1012.1 |
| 20260505153011 | 74 | 226 | 2.6 | 9.6 | 0.00 | 0.00 | 0.00 | 92 | 1012.3 |
| 20260505152510 | 74 | 209 | 3.5 | 8.7 | 0.00 | 0.00 | 0.00 | 91 | 1012.2 |
| 20260505152010 | 74 | 185 | 3.5 | 8.7 | 0.00 | 0.00 | 0.00 | 91 | 1012.2 |
| 20260505151511 | 74 | 202 | 3.5 | 8.7 | 0.00 | 0.00 | 0.00 | 91 | 1012.3 |
| 20260505151009 | 74 | 180 | 3.5 | 7.8 | 0.00 | 0.00 | 0.00 | 91 | 1012.3 |
| 20260505150510 | 74 | 219 | 4.3 | 10.4 | 0.00 | 0.00 | 0.00 | 91 | 1012.2 |
| 20260505140508 | 73 | 161 | 0.9 | 9.6 | 0.00 | 0.00 | 0.00 | 93 | 1012.0 |
| 20260505125003 | 71 | 173 | 0.9 | 7.8 | 0.00 | 0.00 | 0.00 | 93 | 1011.5 |
| 20260505124734 | 71 | 171 | 0.9 | 7.8 | 0.00 | 0.00 | 0.00 | 93 | 1011.5 |
| 20260505124004 | 71 | 168 | 0.0 | 8.7 | 0.00 | 0.00 | 0.00 | 93 | 1011.6 |
| 20260505123734 | 71 | 252 | 0.0 | 8.7 | 0.00 | 0.00 | 0.00 | 94 | 1011.6 |
| 20260505123002 | 71 | 185 | 0.9 | 7.0 | 0.00 | 0.00 | 0.00 | 94 | 1011.6 |
| 20260505122504 | 71 | 192 | 0.9 | 7.0 | 0.00 | 0.00 | 0.00 | 94 | 1011.6 |
| 20260505122004 | 71 | 194 | 0.0 | 5.2 | 0.00 | 0.00 | 0.00 | 94 | 1011.4 |
| 20260505121503 | 71 | 172 | 0.0 | 5.2 | 0.00 | 0.00 | 0.00 | 94 | 1011.1 |
| 20260505121004 | 71 | 207 | 0.9 | 7.8 | 0.00 | 0.00 | 0.00 | 94 | 1011.4 |
| 20260505120502 | 71 | 178 | 0.9 | 7.8 | 0.00 | 0.00 | 0.00 | 94 | 1011.3 |
| 20260505120002 | 70 | 219 | 0.9 | 7.0 | 0.00 | 0.00 | 0.00 | 94 | 1011.2 |
| 20260505115502 | 70 | 205 | 0.9 | 7.8 | 0.00 | 0.00 | 0.00 | 94 | 1010.8 |
| 20260505115004 | 70 | 145 | 0.9 | 7.8 | 0.00 | 0.00 | 0.00 | 94 | 1010.9 |
| 20260505114501 | 70 | 177 | 0.0 | 5.2 | 0.00 | 0.00 | 0.00 | 94 | 1011.2 |
| 20260505114000 | 70 | 207 | 0.0 | 5.2 | 0.00 | 0.00 | 0.00 | 94 | 1011.3 |
| 20260505113457 | 70 | 185 | 0.0 | 6.1 | 0.00 | 0.00 | 0.00 | 94 | 1010.8 |
| 20260505112958 | 70 | 207 | 0.9 | 8.7 | 0.00 | 0.00 | 0.00 | 94 | 1010.8 |
| 20260505112457 | 70 | 177 | 0.9 | 8.7 | 0.00 | 0.00 | 0.00 | 94 | 1010.8 |
| 20260505111958 | 70 | 176 | 0.9 | 8.7 | 0.00 | 0.00 | 0.00 | 94 | 1010.8 |
| 20260505111458 | 70 | 209 | 0.9 | 7.8 | 0.00 | 0.00 | 0.00 | 94 | 1010.9 |
| 20260505110956 | 70 | 191 | 0.9 | 7.8 | 0.00 | 0.00 | 0.00 | 94 | 1011.0 |
| 20260505110727 | 70 | 185 | 0.0 | 4.3 | 0.00 | 0.00 | 0.00 | 93 | 1011.1 |
| 20260505101957 | 70 | 147 | 2.6 | 10.4 | 0.00 | 0.00 | 0.00 | 93 | 1011.0 |
| 20260505101455 | 70 | 171 | 0.9 | 10.4 | 0.00 | 0.00 | 0.00 | 93 | 1010.9 |
| 20260505100955 | 70 | 164 | 0.9 | 7.0 | 0.00 | 0.00 | 0.00 | 93 | 1010.9 |
| 20260505100455 | 69 | 178 | 0.9 | 7.8 | 0.00 | 0.00 | 0.00 | 93 | 1011.1 |
| 20260505095955 | 70 | 246 | 0.9 | 9.6 | 0.00 | 0.00 | 0.00 | 93 | 1011.0 |
| 20260505095453 | 70 | 179 | 0.9 | 9.6 | 0.00 | 0.00 | 0.00 | 93 | 1011.0 |
| 20260505094953 | 70 | 147 | 0.0 | 0.9 | 0.00 | 0.00 | 0.00 | 93 | 1010.9 |
| 20260505094452 | 70 | 172 | 0.0 | 2.6 | 0.00 | 0.00 | 0.00 | 93 | 1011.0 |
| 20260505093953 | 70 | 205 | 0.0 | 2.6 | 0.00 | 0.00 | 0.00 | 93 | 1011.3 |
| 20260505093452 | 69 | 196 | 0.0 | 0.9 | 0.00 | 0.00 | 0.00 | 93 | 1011.4 |
| 20260505092951 | 69 | 169 | 0.0 | 4.3 | 0.00 | 0.00 | 0.00 | 93 | 1011.5 |
| 20260505092450 | 69 | 168 | 0.0 | 4.3 | 0.00 | 0.00 | 0.00 | 93 | 1011.1 |
| 20260505091950 | 69 | 186 | 0.0 | 0.9 | 0.00 | 0.00 | 0.00 | 93 | 1011.3 |
| 20260505091449 | 69 | 163 | 0.0 | 0.9 | 0.00 | 0.00 | 0.00 | 93 | 1011.0 |
| 20260505090946 | 69 | 184 | 0.0 | 3.5 | 0.00 | 0.00 | 0.00 | 93 | 1011.1 |
| 20260505090447 | 69 | 192 | 0.0 | 3.5 | 0.00 | 0.00 | 0.00 | 93 | 1011.3 |
| 20260505085947 | 69 | 158 | 0.0 | 7.8 | 0.00 | 0.00 | 0.00 | 93 | 1011.3 |
| 20260505085448 | 69 | 161 | 0.0 | 7.8 | 0.00 | 0.00 | 0.00 | 93 | 1011.5 |
| 20260505084947 | 69 | 186 | 0.0 | 5.2 | 0.00 | 0.00 | 0.00 | 92 | 1011.5 |
| 20260505084445 | 69 | 180 | 0.0 | 5.2 | 0.00 | 0.00 | 0.00 | 92 | 1011.5 |
| 20260505083946 | 69 | 178 | 0.0 | 4.3 | 0.00 | 0.00 | 0.00 | 92 | 1011.6 |
| 20260505083444 | 69 | 169 | 0.0 | 4.3 | 0.00 | 0.00 | 0.00 | 92 | 1011.8 |
| 20260505082944 | 69 | 184 | 0.0 | 5.2 | 0.00 | 0.00 | 0.00 | 92 | 1012.0 |
| 20260505082718 | 69 | 193 | 0.0 | 6.1 | 0.00 | 0.00 | 0.00 | 91 | 1012.0 |
| 20260505081944 | 69 | 177 | 0.9 | 9.6 | 0.00 | 0.00 | 0.00 | 91 | 1011.9 |
| 20260505081444 | 69 | 162 | 0.9 | 9.6 | 0.00 | 0.00 | 0.00 | 91 | 1012.0 |
| 20260505080945 | 70 | 161 | 0.0 | 5.2 | 0.00 | 0.00 | 0.00 | 90 | 1011.8 |
| 20260505080444 | 70 | 187 | 0.0 | 4.3 | 0.00 | 0.00 | 0.00 | 90 | 1011.9 |
| 20260505080215 | 70 | 183 | 0.0 | 0.9 | 0.00 | 0.00 | 0.00 | 90 | 1012.0 |
| 20260505075444 | 70 | 184 | 0.0 | 0.9 | 0.00 | 0.00 | 0.00 | 90 | 1012.2 |
| 20260505074945 | 70 | 175 | 0.0 | 0.9 | 0.00 | 0.00 | 0.00 | 90 | 1012.2 |
| 20260505074445 | 70 | 178 | 0.0 | 7.0 | 0.00 | 0.00 | 0.00 | 90 | 1012.3 |
| 20260505074214 | 70 | 175 | 0.0 | 7.0 | 0.00 | 0.00 | 0.00 | 90 | 1012.3 |
| 20260505073713 | 70 | 207 | 0.0 | 3.5 | 0.00 | 0.00 | 0.00 | 90 | 1012.4 |
| 20260505072944 | 70 | 206 | 0.0 | 7.0 | 0.00 | 0.00 | 0.00 | 90 | 1012.4 |
| 20260505072443 | 70 | 212 | 0.0 | 7.0 | 0.00 | 0.00 | 0.00 | 90 | 1012.3 |
| 20260505071943 | 70 | 207 | 0.0 | 6.1 | 0.00 | 0.00 | 0.00 | 89 | 1012.3 |
| 20260505071442 | 70 | 185 | 0.0 | 6.1 | 0.00 | 0.00 | 0.00 | 89 | 1012.4 |
| 20260505070940 | 70 | 169 | 0.0 | 0.9 | 0.00 | 0.00 | 0.00 | 89 | 1012.5 |
| 20260505070711 | 70 | 167 | 0.0 | 5.2 | 0.00 | 0.00 | 0.00 | 89 | 1012.5 |
| 20260505065941 | 70 | 178 | 0.0 | 5.2 | 0.00 | 0.00 | 0.00 | 89 | 1012.5 |
| 20260505065439 | 70 | 171 | 0.0 | 6.1 | 0.00 | 0.00 | 0.00 | 89 | 1012.6 |
| 20260505064939 | 70 | 157 | 0.0 | 6.1 | 0.00 | 0.00 | 0.00 | 89 | 1012.8 |
| 20260505064437 | 70 | 146 | 0.0 | 0.9 | 0.00 | 0.00 | 0.00 | 89 | 1012.8 |
| 20260505063934 | 70 | 171 | 0.0 | 3.5 | 0.00 | 0.00 | 0.00 | 88 | 1012.9 |
| 20260505063434 | 70 | 169 | 0.0 | 7.0 | 0.00 | 0.00 | 0.00 | 88 | 1012.9 |
| 20260505062935 | 70 | 163 | 0.0 | 7.0 | 0.00 | 0.00 | 0.00 | 88 | 1012.9 |
| 20260505062435 | 70 | 175 | 0.0 | 0.9 | 0.00 | 0.00 | 0.00 | 88 | 1012.9 |
| 20260505061933 | 70 | 171 | 0.0 | 0.9 | 0.00 | 0.00 | 0.00 | 87 | 1012.9 |
| 20260505061431 | 70 | 161 | 0.0 | 0.9 | 0.00 | 0.00 | 0.00 | 87 | 1012.8 |
| 20260505060932 | 70 | 170 | 0.0 | 0.9 | 0.00 | 0.00 | 0.00 | 87 | 1012.9 |
| 20260505060430 | 70 | 173 | 0.0 | 10.4 | 0.00 | 0.00 | 0.00 | 87 | 1012.8 |
| 20260505060201 | 70 | 167 | 0.0 | 10.4 | 0.00 | 0.00 | 0.00 | 86 | 1012.8 |
| 20260505055431 | 70 | 165 | 0.0 | 1.7 | 0.00 | 0.00 | 0.00 | 86 | 1012.9 |
| 20260505054928 | 70 | 175 | 0.0 | 1.7 | 0.00 | 0.00 | 0.00 | 86 | 1013.1 |
| 20260505054701 | 70 | 173 | 0.0 | 1.7 | 0.00 | 0.00 | 0.00 | 85 | 1013.1 |
| 20260505053928 | 70 | 155 | 0.0 | 1.7 | 0.00 | 0.00 | 0.00 | 85 | 1013.0 |
| 20260505053427 | 70 | 155 | 0.0 | 1.7 | 0.00 | 0.00 | 0.00 | 85 | 1012.9 |
| 20260505053159 | 71 | 172 | 0.0 | 5.2 | 0.00 | 0.00 | 0.00 | 84 | 1012.8 |
| 20260505052426 | 71 | 189 | 0.0 | 7.0 | 0.00 | 0.00 | 0.00 | 84 | 1012.9 |
| 20260505051924 | 71 | 169 | 0.9 | 7.0 | 0.00 | 0.00 | 0.00 | 84 | 1013.0 |
| 20260505051657 | 71 | 171 | 0.9 | 7.0 | 0.00 | 0.00 | 0.00 | 84 | 1012.9 |
| 20260505050925 | 71 | 171 | 0.9 | 7.8 | 0.00 | 0.00 | 0.00 | 84 | 1012.8 |
| 20260505050424 | 71 | 178 | 1.7 | 12.2 | 0.00 | 0.00 | 0.00 | 84 | 1012.9 |
| 20260505041655 | 72 | 174 | 2.6 | 10.4 | 0.00 | 0.00 | 0.00 | 83 | 1013.3 |
| 20260505041155 | 72 | 155 | 3.5 | 10.4 | 0.00 | 0.00 | 0.00 | 83 | 1013.2 |
| 20260505040421 | 72 | 177 | 2.6 | 10.4 | 0.00 | 0.00 | 0.00 | 83 | 1013.2 |
| 20260505035920 | 71 | 155 | 0.9 | 8.7 | 0.00 | 0.00 | 0.00 | 83 | 1013.1 |
| 20260505035419 | 72 | 185 | 0.9 | 7.8 | 0.00 | 0.00 | 0.00 | 83 | 1013.1 |
| 20260505034917 | 72 | 168 | 1.7 | 7.8 | 0.00 | 0.00 | 0.00 | 83 | 1013.0 |
| 20260505034416 | 72 | 189 | 2.6 | 7.8 | 0.00 | 0.00 | 0.00 | 83 | 1013.0 |
| 20260505034145 | 72 | 165 | 1.7 | 7.8 | 0.00 | 0.00 | 0.00 | 83 | 1013.0 |
| 20260505033412 | 72 | 172 | 0.9 | 7.8 | 0.00 | 0.00 | 0.00 | 83 | 1013.0 |
| 20260505032912 | 72 | 161 | 0.9 | 6.1 | 0.00 | 0.00 | 0.00 | 82 | 1013.1 |
| 20260505032641 | 72 | 175 | 1.7 | 7.8 | 0.00 | 0.00 | 0.00 | 82 | 1013.0 |
| 20260505031910 | 72 | 192 | 1.7 | 7.8 | 0.00 | 0.00 | 0.00 | 82 | 1012.9 |
| 20260505031411 | 73 | 169 | 2.6 | 8.7 | 0.00 | 0.00 | 0.00 | 81 | 1013.0 |
| 20260505030908 | 73 | 166 | 2.6 | 8.7 | 0.00 | 0.00 | 0.00 | 81 | 1012.9 |
| 20260505030409 | 73 | 171 | 3.5 | 9.6 | 0.00 | 0.00 | 0.00 | 81 | 1012.8 |
| 20260505025908 | 73 | 178 | 3.5 | 9.6 | 0.00 | 0.00 | 0.00 | 81 | 1013.0 |
| 20260505025406 | 73 | 165 | 3.5 | 9.6 | 0.00 | 0.00 | 0.00 | 80 | 1012.9 |
| 20260505024907 | 73 | 171 | 4.3 | 9.6 | 0.00 | 0.00 | 0.00 | 80 | 1012.9 |
| 20260505024408 | 73 | 182 | 4.3 | 9.6 | 0.00 | 0.00 | 0.00 | 80 | 1012.7 |
| 20260505023906 | 73 | 167 | 3.5 | 9.6 | 0.00 | 0.00 | 0.00 | 80 | 1012.9 |
| 20260505023406 | 73 | 163 | 3.5 | 8.7 | 0.00 | 0.00 | 0.00 | 80 | 1012.9 |
| 20260505022907 | 73 | 164 | 4.3 | 10.4 | 0.00 | 0.00 | 0.00 | 80 | 1012.9 |
| 20260505022407 | 74 | 168 | 4.3 | 10.4 | 0.00 | 0.00 | 0.00 | 79 | 1012.7 |
| 20260505021906 | 74 | 171 | 4.3 | 8.7 | 0.00 | 0.00 | 0.00 | 79 | 1012.7 |
| 20260505021407 | 74 | 178 | 3.5 | 8.7 | 0.00 | 0.00 | 0.00 | 79 | 1012.7 |
| 20260505020906 | 74 | 163 | 2.6 | 8.7 | 0.00 | 0.00 | 0.00 | 79 | 1012.6 |
| 20260505020406 | 74 | 165 | 2.6 | 12.2 | 0.00 | 0.00 | 0.00 | 78 | 1012.5 |
| 20260505015906 | 74 | 169 | 2.6 | 12.2 | 0.00 | 0.00 | 0.00 | 78 | 1012.5 |
| 20260505015404 | 74 | 197 | 3.5 | 10.4 | 0.00 | 0.00 | 0.00 | 78 | 1012.5 |
| 20260505014905 | 74 | 158 | 3.5 | 10.4 | 0.00 | 0.00 | 0.00 | 78 | 1012.5 |
| 20260505014635 | 74 | 162 | 2.6 | 9.6 | 0.00 | 0.00 | 0.00 | 77 | 1012.5 |
| 20260505013905 | 74 | 171 | 2.6 | 9.6 | 0.00 | 0.00 | 0.00 | 77 | 1012.5 |
| 20260505013402 | 74 | 162 | 2.6 | 9.6 | 0.00 | 0.00 | 0.00 | 77 | 1012.5 |
| 20260505012903 | 74 | 175 | 3.5 | 9.6 | 0.00 | 0.00 | 0.00 | 77 | 1012.4 |
| 20260505012402 | 75 | 170 | 2.6 | 9.6 | 0.00 | 0.00 | 0.00 | 76 | 1012.2 |
| 20260505012135 | 75 | 169 | 2.6 | 10.4 | 0.00 | 0.00 | 0.00 | 76 | 1012.1 |
| 20260505011403 | 75 | 190 | 3.5 | 10.4 | 0.00 | 0.00 | 0.00 | 75 | 1012.1 |
| 20260505010903 | 75 | 176 | 3.5 | 8.7 | 0.00 | 0.00 | 0.00 | 75 | 1012.1 |
| 20260505010404 | 75 | 159 | 3.5 | 7.8 | 0.00 | 0.00 | 0.00 | 74 | 1012.0 |
| 20260505005902 | 76 | 158 | 4.3 | 7.8 | 0.00 | 0.00 | 0.00 | 74 | 1012.0 |
| 20260505005402 | 76 | 180 | 4.3 | 8.7 | 0.00 | 0.00 | 0.00 | 73 | 1012.0 |
| 20260505004903 | 76 | 166 | 2.6 | 8.7 | 0.00 | 0.00 | 0.00 | 73 | 1012.1 |
| 20260505004400 | 76 | 153 | 1.7 | 7.8 | 0.00 | 0.00 | 0.00 | 72 | 1012.1 |
| 20260505003902 | 76 | 179 | 3.5 | 8.7 | 0.00 | 0.00 | 0.00 | 72 | 1012.0 |
| 20260505003400 | 76 | 157 | 5.2 | 9.6 | 0.00 | 0.00 | 0.00 | 72 | 1012.1 |
| 20260505002900 | 77 | 189 | 5.2 | 10.4 | 0.00 | 0.00 | 0.00 | 71 | 1012.1 |
| 20260505002631 | 77 | 169 | 5.2 | 10.4 | 0.00 | 0.00 | 0.00 | 71 | 1012.3 |
| 20260505001900 | 77 | 181 | 4.3 | 10.4 | 0.00 | 0.00 | 0.00 | 71 | 1012.3 |
| 20260505001400 | 77 | 176 | 3.5 | 8.7 | 0.00 | 0.00 | 0.00 | 71 | 1012.3 |
| 20260505000901 | 78 | 184 | 3.5 | 11.3 | 0.00 | 0.00 | 0.00 | 71 | 1012.5 |
| 20260505000401 | 78 | 140 | 2.6 | 11.3 | 0.00 | 0.00 | 0.00 | 71 | 1012.4 |
| 20260504235900 | 78 | 161 | 2.6 | 8.7 | 0.00 | 0.00 | 0.00 | 71 | 1012.6 |
| 20260504235358 | 78 | 176 | 2.6 | 8.7 | 0.00 | 0.00 | 0.00 | 71 | 1012.5 |
| 20260504234858 | 78 | 164 | 4.3 | 10.4 | 0.00 | 0.00 | 0.00 | 71 | 1012.6 |
| 20260504234356 | 78 | 171 | 5.2 | 10.4 | 0.00 | 0.00 | 0.00 | 70 | 1012.7 |
| 20260504233857 | 78 | 178 | 4.3 | 10.4 | 0.00 | 0.00 | 0.00 | 70 | 1012.6 |
| 20260504233357 | 78 | 179 | 3.5 | 10.4 | 0.00 | 0.00 | 0.00 | 70 | 1012.5 |
| 20260504232857 | 78 | 175 | 4.3 | 9.6 | 0.00 | 0.00 | 0.00 | 70 | 1012.7 |
| 20260504232357 | 78 | 143 | 4.3 | 9.6 | 0.00 | 0.00 | 0.00 | 71 | 1012.8 |
| 20260504231857 | 78 | 181 | 4.3 | 9.6 | 0.00 | 0.00 | 0.00 | 70 | 1012.6 |
| 20260504231626 | 78 | 161 | 5.2 | 12.2 | 0.00 | 0.00 | 0.00 | 69 | 1012.6 |
| 20260504230856 | 78 | 162 | 3.5 | 12.2 | 0.00 | 0.00 | 0.00 | 69 | 1012.8 |
| 20260504230353 | 78 | 128 | 2.6 | 10.4 | 0.00 | 0.00 | 0.00 | 70 | 1013.0 |
| 20260504230126 | 78 | 159 | 3.5 | 11.3 | 0.00 | 0.00 | 0.00 | 69 | 1013.1 |
| 20260504225354 | 78 | 143 | 4.3 | 11.3 | 0.00 | 0.00 | 0.00 | 68 | 1013.3 |
| 20260504224855 | 79 | 160 | 5.2 | 10.4 | 0.00 | 0.00 | 0.00 | 69 | 1013.3 |
| 20260504224353 | 79 | 181 | 5.2 | 10.4 | 0.00 | 0.00 | 0.00 | 68 | 1013.2 |
| 20260504223855 | 80 | 181 | 5.2 | 9.6 | 0.00 | 0.00 | 0.00 | 67 | 1013.2 |
| 20260504223354 | 80 | 171 | 5.2 | 10.4 | 0.00 | 0.00 | 0.00 | 68 | 1013.3 |
| 20260504222854 | 79 | 173 | 4.3 | 10.4 | 0.00 | 0.00 | 0.00 | 68 | 1013.3 |
| 20260504222354 | 79 | 139 | 5.2 | 10.4 | 0.00 | 0.00 | 0.00 | 68 | 1013.3 |
| 20260504221854 | 80 | 161 | 6.1 | 11.3 | 0.00 | 0.00 | 0.00 | 67 | 1013.4 |
| 20260504221354 | 80 | 173 | 5.2 | 11.3 | 0.00 | 0.00 | 0.00 | 68 | 1013.4 |
| 20260504220855 | 80 | 155 | 4.3 | 10.4 | 0.00 | 0.00 | 0.00 | 66 | 1013.4 |
| 20260504220355 | 80 | 157 | 5.2 | 9.6 | 0.00 | 0.00 | 0.00 | 68 | 1013.4 |
| 20260504215852 | 80 | 223 | 6.1 | 15.6 | 0.00 | 0.00 | 0.00 | 66 | 1013.5 |
| 20260504215353 | 80 | 156 | 5.2 | 15.6 | 0.00 | 0.00 | 0.00 | 67 | 1013.6 |
| 20260504214853 | 80 | 215 | 4.3 | 9.6 | 0.00 | 0.00 | 0.00 | 67 | 1013.8 |
| 20260504214352 | 80 | 204 | 3.5 | 9.6 | 0.00 | 0.00 | 0.00 | 67 | 1014.0 |
| 20260504213853 | 80 | 167 | 5.2 | 11.3 | 0.00 | 0.00 | 0.00 | 66 | 1014.0 |
| 20260504213622 | 80 | 207 | 6.1 | 11.3 | 0.00 | 0.00 | 0.00 | 65 | 1014.1 |
| 20260504212851 | 80 | 259 | 5.2 | 13.0 | 0.00 | 0.00 | 0.00 | 67 | 1014.2 |
| 20260504212349 | 80 | 176 | 4.3 | 13.0 | 0.00 | 0.00 | 0.00 | 65 | 1014.1 |
| 20260504211850 | 80 | 163 | 4.3 | 10.4 | 0.00 | 0.00 | 0.00 | 66 | 1014.3 |
| 20260504211350 | 80 | 163 | 4.3 | 10.4 | 0.00 | 0.00 | 0.00 | 64 | 1014.5 |
| 20260504210849 | 80 | 161 | 4.3 | 12.2 | 0.00 | 0.00 | 0.00 | 64 | 1014.6 |
| 20260504210622 | 80 | 167 | 5.2 | 12.2 | 0.00 | 0.00 | 0.00 | 66 | 1014.6 |
| 20260504205847 | 80 | 156 | 4.3 | 9.6 | 0.00 | 0.00 | 0.00 | 65 | 1014.6 |
| 20260504205620 | 80 | 166 | 3.5 | 11.3 | 0.00 | 0.00 | 0.00 | 64 | 1014.8 |
| 20260504204849 | 81 | 192 | 4.3 | 11.3 | 0.00 | 0.00 | 0.00 | 63 | 1014.9 |
| 20260504204349 | 81 | 155 | 2.6 | 10.4 | 0.00 | 0.00 | 0.00 | 64 | 1015.0 |
| 20260504203848 | 81 | 147 | 2.6 | 9.6 | 0.00 | 0.00 | 0.00 | 62 | 1015.1 |
| 20260504203620 | 81 | 169 | 5.2 | 15.6 | 0.00 | 0.00 | 0.00 | 64 | 1015.1 |
| 20260504202848 | 80 | 184 | 5.2 | 15.6 | 0.00 | 0.00 | 0.00 | 65 | 1015.1 |
| 20260504202348 | 80 | 134 | 6.1 | 12.2 | 0.00 | 0.00 | 0.00 | 63 | 1015.2 |
| 20260504201848 | 80 | 175 | 4.3 | 12.2 | 0.00 | 0.00 | 0.00 | 61 | 1015.3 |
| 20260504201616 | 81 | 225 | 3.5 | 10.4 | 0.00 | 0.00 | 0.00 | 64 | 1015.3 |
| 20260504200847 | 80 | 144 | 6.1 | 10.4 | 0.00 | 0.00 | 0.00 | 64 | 1015.5 |
| 20260504200619 | 81 | 188 | 4.3 | 13.9 | 0.00 | 0.00 | 0.00 | 62 | 1015.5 |
| 20260504195844 | 81 | 189 | 1.7 | 13.9 | 0.00 | 0.00 | 0.00 | 64 | 1015.9 |
| 20260504195342 | 81 | 193 | 4.3 | 14.8 | 0.00 | 0.00 | 0.00 | 62 | 1015.8 |
| 20260504195115 | 80 | 194 | 6.1 | 14.8 | 0.00 | 0.00 | 0.00 | 61 | 1016.0 |
| 20260504194347 | 80 | 189 | 3.5 | 11.3 | 0.00 | 0.00 | 0.00 | 64 | 1016.2 |
| 20260504194341 | 80 | 177 | 4.3 | 14.8 | 0.00 | 0.00 | 0.00 | 62 | 1016.1 |
| 20260504193342 | 80 | 161 | 5.2 | 13.0 | 0.00 | 0.00 | 0.00 | 63 | 1016.1 |
| 20260504193113 | 80 | 169 | 5.2 | 13.0 | 0.00 | 0.00 | 0.00 | 63 | 1016.2 |
| 20260504192341 | 81 | 197 | 4.3 | 13.0 | 0.00 | 0.00 | 0.00 | 64 | 1016.2 |
| 20260504191841 | 80 | 175 | 4.3 | 13.0 | 0.00 | 0.00 | 0.00 | 65 | 1016.2 |
| 20260504191343 | 81 | 211 | 4.3 | 12.2 | 0.00 | 0.00 | 0.00 | 65 | 1016.2 |
| 20260504190843 | 80 | 149 | 5.2 | 13.0 | 0.00 | 0.00 | 0.00 | 66 | 1016.3 |
| 20260504190343 | 80 | 184 | 6.1 | 13.0 | 0.00 | 0.00 | 0.00 | 64 | 1016.2 |
| 20260504185843 | 79 | 175 | 6.1 | 13.9 | 0.00 | 0.00 | 0.00 | 65 | 1016.3 |
| 20260504185343 | 80 | 165 | 3.5 | 13.9 | 0.00 | 0.00 | 0.00 | 61 | 1016.5 |
| 20260504184844 | 80 | 229 | 3.5 | 10.4 | 0.00 | 0.00 | 0.00 | 64 | 1016.7 |
| 20260504184342 | 80 | 143 | 4.3 | 11.3 | 0.00 | 0.00 | 0.00 | 63 | 1016.7 |
| 20260504183843 | 80 | 180 | 4.3 | 11.3 | 0.00 | 0.00 | 0.00 | 64 | 1016.8 |
| 20260504183611 | 80 | 167 | 3.5 | 10.4 | 0.00 | 0.00 | 0.00 | 64 | 1016.9 |
| 20260504183112 | 80 | 169 | 1.7 | 8.7 | 0.00 | 0.00 | 0.00 | 64 | 1016.9 |
| 20260504182339 | 79 | 175 | 2.6 | 10.4 | 0.00 | 0.00 | 0.00 | 64 | 1016.8 |
| 20260504181840 | 79 | 167 | 5.2 | 11.3 | 0.00 | 0.00 | 0.00 | 63 | 1016.8 |